Weather in Kiryat Shmona

Israel     33°12′45″N   35°34′26″E
temp.,
°C
wind,
m/s
gust,
m/s
humid.,
%
clouds,
%
prec.,
mm/h
press.,
hPa
HPBL,
m
17 may, mon
mon1700:00+18sse11430 0.0 100911
03:00+18wnw2242100 0.0 100811
06:00+16nw2274100 0.0 101014
09:00+23wnw22383 0.0 1010442
12:00+26wnw662914 0.0 10111061
15:00+25wnw66385 0.0 1011804
18:00+21nw555363 0.0 1012531
21:00+16wnw328282 0.0 101330
18 may, tue
tue1800:00+15wnw228982 0.0 101317
03:00+14wnw22946 0.0 101321
06:00+14w11910 0.0 101311
09:00+20wnw22570 0.0 1014559
12:00+25wnw43370 0.0 1014998
15:00+25nw65430 0.0 1013683
18:00+21nw44530 0.0 1013464
21:00+16nw11810 0.0 101412
19 may, wed
wed1900:00+16nw22740 0.0 101413
03:00+15wnw22810 0.0 101311
06:00+15w11730 0.0 101311
09:00+24nw11350 0.0 1013377
12:00+29nw53320 0.0 1013834
15:00+28nw54350 0.0 1011564
18:00+26wnw34360 0.0 1010338
21:00+19wnw22670 0.0 101114
20 may, thu
thu2000:00+19wnw22630 0.0 101111
03:00+18nw11590 0.0 101011
06:00+18wnw11610 0.0 101011
09:00+28wnw10270 0.0 1010353
12:00+32nw43270 0.0 1010853
15:00+31nw43270 0.0 1009542
18:00+28wnw44370 0.0 1008330
21:00+21wnw33694 0.0 100934
21 may, fri
fri2100:00+21nnw226827 0.0 101149
03:00+20wnw226933 0.0 100913
06:00+20w22630 0.0 100913
09:00+28nw11351 0.0 1010348
12:00+33nw42251 0.0 1008805
15:00+32nw53290 0.0 1007575
18:00+27nw563411 0.0 1006353
21:00+22nw225396 0.0 100717